Meteo Giornale » Osservazioni meteo Italia » Verona-Villafranca

ore: 02:50 - Osservazioni Meteo Verona-Villafranca
Lat. 45° 23' N Lon. 10° 52' E Alt. 67 metri s.l.m.

sereno Europe/Rome

7 °C

Sereno

Temp. 24 Ore

6 °C

23 °C

Nord

5.5 Km/h

Dew point 2 °C

Umidità 70 %

Visibilità  10 Km

Il sole sorge alle ore 06:08

Il sole tramonta alle ore 18:36

Data e Ora Cielo e Fenomeni T °C DP °C Um. % Pres. hPa Vis. km Vento km/h
Oggi h: 02:50 sereno Sereno 7 2 70 1015 10 N 5.5
Oggi h: 02:20 sereno Sereno 7 2 70 1015 10 N 3.7
Oggi h: 01:50 sereno Sereno 8 2 65 1015 10 N 3.7
Oggi h: 01:20 sereno Sereno 10 2 57 1015 10 N 7.4
Oggi h: 00:20 sereno Sereno 10 2 57 1015 10 N/NO 7.4
Ieri h: 23:50 sereno Sereno 9 3 66 1016 10 N/NO 9.3
Ieri h: 23:20 sereno Sereno 11 3 57 1016 10 N/NO 7.4
Ieri h: 22:50 sereno Sereno 12 3 54 1016 10 N/NO 9.3
Ieri h: 22:20 sereno Sereno 11 3 57 1016 10 N/NO 7.4
Ieri h: 21:50 sereno Sereno 12 3 54 1016 10 N 5.5
Ieri h: 21:20 sereno Sereno 13 3 50 1017 10 N/NO 7.4
Ieri h: 20:50 sereno Sereno 14 3 47 1016 10 N 3.7
Ieri h: 20:20 sereno Sereno 14 3 47 1016 10 N 3.7
Ieri h: 19:50 sereno Sereno 16 3 41 1017 10 N 5.5
Ieri h: 19:20 sereno Sereno 17 3 39 1017 10 N 5.5
Ieri h: 18:50 sereno Sereno 19 3 34 1016 10 SO 9.3
Ieri h: 18:20 sereno Sereno 20 4 34 1016 10 S/SO 7.4
Ieri h: 17:50 sereno Sereno 21 3 30 1016 10 SO 9.3
Ieri h: 17:20 sereno Sereno 23 2 25 1017 10 O/SO 9.3
Ieri h: 16:50 sereno Sereno 23 3 26 1017 10 SO 13
Ieri h: 16:20 sereno Sereno 23 2 25 1017 10 SO 11.1
Ieri h: 15:50 sereno Sereno 23 1 23 1018 10 S/SO 14.8
Ieri h: 15:20 sereno Sereno 23 2 25 1018 10 S/SO 13
Ieri h: 14:50 sereno Sereno 23 3 26 1018 10 S/SO 14.8
Ieri h: 14:20 sereno Sereno 23 2 25 1019 10 S/SO 16.7
Ieri h: 13:50 sereno Sereno 23 3 26 1019 10 O 11.1
Ieri h: 13:20 sereno Sereno 22 2 26 1020 10 O/SO 11.1
Ieri h: 12:50 sereno Sereno 22 2 26 1021 10 O 13
Ieri h: 12:20 sereno Sereno 21 1 26 1021 10 O 9.3
Ieri h: 11:50 sereno Sereno 21 4 32 1021 10 O/SO 9.3
Ieri h: 11:20 sereno Sereno 20 4 34 1022 10 S 7.4
Ieri h: 10:50 sereno Sereno 19 4 37 1022 10 N 5.5
Ieri h: 10:20 sereno Sereno 18 4 39 1022 10 N 3.7
Ieri h: 09:50 sereno Sereno 17 4 41 1022 10 N 3.7
Ieri h: 09:20 sereno Sereno 16 3 41 1023 10 N 3.7
Ieri h: 08:50 sereno Sereno 14 5 54 1023 10 N 3.7
Ieri h: 08:20 sereno Sereno 12 6 66 1023 10 N 5.5
Ieri h: 07:50 sereno Sereno 10 4 66 1023 10 N 3.7
Ieri h: 07:20 sereno Sereno 8 2 65 1023 10 N 3.7
Ieri h: 06:50 sereno Sereno 7 1 65 1023 10 N 3.7
Ieri h: 06:20 sereno Sereno 7 1 65 1023 10 N 5.5
Ieri h: 05:50 sereno Sereno 6 1 70 1023 10 N 3.7
Ieri h: 05:20 sereno Sereno 6 1 70 1023 10 N 5.5
Ieri h: 04:50 sereno Sereno 6 1 70 1023 10 O/NO 7.4
Ieri h: 04:20 sereno Sereno 6 1 70 1023 10 O/NO 7.4
Ieri h: 03:50 sereno Sereno 7 1 65 1023 10 NO 7.4
Ieri h: 03:20 sereno Sereno 6 1 70 1023 10 N 5.5
Ieri h: 02:50 sereno Sereno 7 1 65 1023 10 N 5.5